KC4LW Weather Reports


Display with metric or nautical units.
time (UTC)temp
F
wind
direction
speed
MPH
gust
MPH
rain 1hr
in
rain 24hr
in
rain mn
in
humidity
%
barometer
mb
20260902114559 79 0 0.0 1.0 0.00 0.00 0.00 100 1016.1
20260902113053 79 0 0.0 1.0 0.00 0.00 0.00 99 1016.1
20260902111601 79 0 0.0 2.0 0.00 0.00 0.00 99 1015.9
20260902110103 78 0 0.0 0.0 0.00 0.00 0.00 99 1015.8
20260902104604 78 0 0.0 1.0 0.00 0.00 0.00 99 1015.8
20260902103056 78 0 0.0 1.0 0.00 0.00 0.00 99 1015.7
20260902101554 78 0 0.0 1.0 0.00 0.00 0.00 99 1015.6
20260902100055 78 0 0.0 0.0 0.00 0.00 0.00 99 1015.7
20260902094602 78 0 0.0 0.0 0.00 0.00 0.00 99 1015.4
20260902093107 78 0 0.0 1.0 0.00 0.00 0.00 99 1015.2
20260902091605 78 0 0.0 1.0 0.00 0.00 0.00 99 1015.2
20260902084559 78 0 0.0 1.0 0.00 0.00 0.00 98 1015.2
20260902083108 78 0 0.0 0.0 0.00 0.00 0.00 98 1015.3
20260902081555 78 0 0.0 2.0 0.00 0.00 0.00 98 1015.2
20260902080113 78 0 0.0 0.0 0.00 0.00 0.00 98 1015.4
20260902074600 78 0 0.0 0.0 0.00 0.00 0.00 98 1015.6
20260902073057 78 0 0.0 0.0 0.00 0.00 0.00 98 1015.5
20260902071603 78 0 0.0 0.0 0.00 0.00 0.00 98 1015.5
20260902070108 79 0 0.0 0.0 0.00 0.00 0.00 98 1015.5
20260902064600 79 0 0.0 0.0 0.00 0.00 0.00 98 1015.3
20260902063104 79 0 0.0 0.0 0.00 0.00 0.00 98 1015.1
20260902061612 79 0 0.0 0.0 0.00 0.00 0.00 98 1015.2
20260902060105 79 0 0.0 0.0 0.00 0.00 0.00 97 1015.3
20260902054609 79 0 0.0 0.0 0.00 0.00 0.00 97 1015.1
20260902053059 79 0 0.0 0.0 0.00 0.00 0.00 97 1015.4
20260902051601 79 0 0.0 0.0 0.00 0.00 0.00 97 1015.2
20260902044605 80 0 0.0 0.0 0.00 0.00 0.00 96 1015.3
20260902043108 80 0 0.0 0.0 0.00 0.00 0.00 96 1015.5
20260902041600 80 0 0.0 0.0 0.00 0.00 0.00 96 1015.7
20260902034556 80 0 0.0 0.0 0.00 0.00 0.00 96 1015.6
20260902033108 80 0 0.0 0.0 0.00 0.00 0.00 95 1015.9
20260902031603 81 0 0.0 1.0 0.00 0.00 0.00 95 1016.2
20260902030103 81 0 0.0 3.0 0.00 0.00 0.00 95 1016.3
20260902024602 81 0 0.0 1.0 0.00 0.00 0.00 95 1016.6
20260902023102 81 0 0.0 2.0 0.00 0.00 0.00 95 1016.2
20260902021609 81 0 0.0 1.0 0.00 0.00 0.00 94 1016.5
20260902020104 81 0 0.0 3.0 0.00 0.00 0.00 94 1016.1
20260902014600 81 0 1.0 3.0 0.00 0.00 0.00 94 1016.3
20260902013059 81 0 1.0 4.0 0.00 0.00 0.00 94 1016.0
20260902011601 81 93 0.0 3.0 0.00 0.00 0.00 94 1015.8
20260902010105 81 95 0.0 4.0 0.00 0.00 0.00 93 1015.8
20260902004558 81 0 0.0 3.0 0.00 0.00 0.00 93 1016.0
20260902003104 82 0 0.0 3.0 0.00 0.00 0.00 93 1015.7
20260902001554 82 78 1.0 4.0 0.00 0.00 0.00 92 1016.0
20260902000057 82 105 0.0 4.0 0.00 0.00 0.00 92 1015.7
20260901234607 82 0 1.0 7.0 0.00 0.00 0.00 91 1015.6
20260901233058 82 0 0.0 4.0 0.00 0.00 0.00 90 1015.6
20260901231600 83 0 0.0 7.0 0.00 0.00 0.00 89 1015.5
20260901230103 83 86 0.0 4.0 0.00 0.00 0.00 88 1015.4
20260901224602 84 0 2.0 9.0 0.00 0.00 0.00 87 1015.2
20260901223103 85 26 2.0 9.0 0.00 0.00 0.00 85 1015.4
20260901221620 85 5 2.0 8.0 0.00 0.00 0.00 84 1015.3
20260901220127 85 109 2.0 9.0 0.00 0.00 0.00 82 1015.4
20260901214600 85 85 2.0 4.0 0.00 0.00 0.00 81 1015.5
20260901213117 85 42 2.0 6.0 0.00 0.00 0.00 80 1015.3
20260901211600 86 51 1.0 7.0 0.00 0.00 0.00 81 1015.4
20260901210105 85 60 2.0 9.0 0.00 0.00 0.00 80 1015.5
20260901204558 86 30 1.0 6.0 0.00 0.00 0.00 80 1015.4
20260901203101 85 165 0.0 7.0 0.00 0.00 0.00 80 1015.6
20260901201556 85 81 2.0 8.0 0.00 0.00 0.00 80 1015.9
20260901194600 86 47 2.0 8.0 0.00 0.00 0.00 79 1016.1
20260901193102 86 77 2.0 8.0 0.00 0.00 0.00 79 1016.0
20260901191614 87 36 2.0 9.0 0.00 0.00 0.00 77 1015.9
20260901190054 88 50 2.0 7.0 0.00 0.00 0.00 75 1015.9
20260901184601 87 85 2.0 8.0 0.00 0.00 0.00 76 1016.0
20260901183058 89 74 2.0 8.0 0.00 0.00 0.00 75 1016.3
20260901181558 89 107 1.0 7.0 0.00 0.00 0.00 76 1016.3
20260901174603 87 106 2.0 10.0 0.00 0.00 0.00 80 1016.8
20260901173059 88 88 2.0 6.0 0.00 0.00 0.00 80 1016.8
20260901171606 86 53 2.0 8.0 0.00 0.00 0.00 81 1017.0
20260901164600 87 33 2.0 9.0 0.00 0.00 0.00 78 1017.1
20260901163108 89 15 1.0 6.0 0.00 0.00 0.00 77 1017.2
20260901161601 88 54 1.0 8.0 0.00 0.00 0.00 78 1017.2
20260901160056 87 104 3.0 10.0 0.00 0.00 0.00 79 1017.3
20260901154559 88 61 2.0 7.0 0.00 0.00 0.00 79 1017.3
20260901153106 88 138 2.0 6.0 0.00 0.00 0.00 80 1017.4
20260901151557 88 0 2.0 7.0 0.00 0.00 0.00 79 1017.5
20260901150107 87 257 1.0 6.0 0.00 0.00 0.00 79 1017.2
20260901144600 86 303 1.0 4.0 0.00 0.00 0.00 81 1017.0
20260901143057 85 101 1.0 5.0 0.00 0.00 0.00 83 1017.0
20260901141602 86 349 1.0 3.0 0.00 0.00 0.00 82 1017.0
20260901134615 85 103 1.0 4.0 0.00 0.00 0.00 85 1017.0
20260901133104 84 0 0.0 5.0 0.00 0.00 0.00 89 1016.9
20260901131605 82 0 1.0 3.0 0.00 0.00 0.00 93 1017.1
20260901130104 81 77 0.0 6.0 0.00 0.00 0.00 97 1017.2
20260901124558 80 59 0.0 4.0 0.00 0.00 0.00 99 1017.0
20260901123103 80 0 0.0 3.0 0.00 0.00 0.00 100 1016.9
20260901121602 79 0 1.0 3.0 0.00 0.00 0.00 100 1016.6
20260901120100 78 0 0.0 2.0 0.00 0.00 0.00 100 1016.5